Change the Weather History Date:

Saturday, May 3, 2014

  Actual Average (KIPT) Record (KIPT)
Temperature  
Mean Temperature 54 °F 56 °F  
Max Temperature 68 °F 68 °F 92 °F (2001)
Min Temperature 42 °F 44 °F 30 °F (1966)
Degree Days  
Heating Degree Days 11 10  
Month to date heating degree days 30  
Since 1 July heating degree days 5785  
Cooling Degree Days 0 0  
Month to date cooling degree days 0  
Year to date cooling degree days 5  
Growing Degree Days 4 (Base 50)    
Moisture  
Dew Point 40 °F    
Average Humidity 64    
Maximum Humidity 89    
Minimum Humidity 37    
Precipitation  
Precipitation 0.01 in 0.10 in 2.73 in (1954)
Month to date precipitation 0.32  
Year to date precipitation 11.57  
Snow  
Snow 0.00 in - - ()
Month to date snowfall  
Since 1 July snowfall  
Snow Depth -    
Sea Level Pressure  
Sea Level Pressure 29.82 in    
Wind  
Wind Speed 2 mph (SW)    
Max Wind Speed 10 mph    
Max Gust Speed 17 mph    
Visibility 10 miles    
Events Rain    
T = Trace of Precipitation, MM = Missing Value Source: NWS Daily Summary

Daily Weather History Graph

Daily Weather History Graph

Search for Another Location

Airport or City:

Trip Planner

Search our weather history database for the weather conditions in past years. The results will help you decide how hot, cold, wet, or windy it might be!

Date:

Astronomy

May. 03, 2014 Rise Set
Actual Time 6:03 AM EDT 8:05 PM EDT
Civil Twilight 5:33 AM EDT 8:35 PM EDT
Nautical Twilight 4:56 AM EDT 9:12 PM EDT
Astronomical Twilight 4:17 AM EDT 9:52 PM EDT
Moon 9:30 AM EDT (5/3) No Moon Set
Length of Visible Light 15h 02m
Length of Day
14h 02m
Waxing Crescent, 19% of the Moon is Illuminated
May 3
Waxing Crescent
May 6
First Quarter
May 14
Full
May 21
Last Quarter
May 28
New

Hourly Weather History & Observations

Time (EDT) Temp. Dew Point Humidity Pressure Visibility Wind Dir Wind Speed Gust Speed Precip Events Conditions
12:53 AM 46.0 °F 37.9 °F 73% 29.87 in 10.0 mi Calm Calm - N/A   Clear
1:53 AM 44.1 °F 39.0 °F 82% 29.86 in 10.0 mi Calm Calm - N/A   Mostly Cloudy
2:53 AM 43.0 °F 39.0 °F 86% 29.87 in 10.0 mi Calm Calm - N/A   Partly Cloudy
3:53 AM 42.1 °F 39.0 °F 89% 29.87 in 10.0 mi Calm Calm - N/A   Overcast
4:53 AM 43.0 °F 39.0 °F 86% 29.88 in 10.0 mi Calm Calm - N/A   Overcast
5:53 AM 43.0 °F 39.0 °F 86% 29.87 in 10.0 mi Calm Calm - N/A   Overcast
6:53 AM 44.1 °F 41.0 °F 89% 29.89 in 9.0 mi Calm Calm - N/A   Overcast
7:53 AM 46.9 °F 41.0 °F 80% 29.88 in 10.0 mi Calm Calm - N/A   Overcast
8:53 AM 55.9 °F 41.0 °F 57% 29.87 in 10.0 mi Calm Calm - N/A   Partly Cloudy
9:53 AM 62.1 °F 39.9 °F 44% 29.85 in 10.0 mi SW 8.1 mph - N/A   Mostly Cloudy
10:53 AM 63.0 °F 39.0 °F 41% 29.83 in 10.0 mi Variable 5.8 mph - N/A   Mostly Cloudy
11:53 AM 63.0 °F 39.0 °F 41% 29.81 in 10.0 mi SW 10.4 mph 17.3 mph N/A   Mostly Cloudy
12:53 PM 62.1 °F 39.9 °F 44% 29.80 in 10.0 mi Variable 5.8 mph - N/A   Overcast
1:53 PM 63.0 °F 39.9 °F 43% 29.79 in 10.0 mi SSW 4.6 mph - N/A   Overcast
2:53 PM 64.0 °F 37.0 °F 37% 29.77 in 10.0 mi West 8.1 mph - N/A   Overcast
4:53 PM 66.0 °F 39.0 °F 37% 29.72 in 9.0 mi Variable 5.8 mph - N/A   Mostly Cloudy
5:53 PM 64.9 °F 39.0 °F 39% 29.72 in 10.0 mi SW 4.6 mph - 0.00 in   Overcast
6:53 PM 64.0 °F 37.9 °F 38% 29.75 in 10.0 mi WSW 9.2 mph 16.1 mph 0.00 in   Overcast
7:53 PM 59.0 °F 43.0 °F 55% 29.77 in 10.0 mi West 4.6 mph - 0.00 in   Mostly Cloudy
8:53 PM 55.0 °F 46.0 °F 72% 29.79 in 9.0 mi SSW 4.6 mph - 0.01 in Rain Light Rain
9:53 PM 51.1 °F 46.9 °F 86% 29.81 in 10.0 mi Calm Calm - 0.00 in   Scattered Clouds
10:53 PM 50.0 °F 46.0 °F 86% 29.82 in 10.0 mi Calm Calm - N/A   Mostly Cloudy
11:53 PM 52.0 °F 43.0 °F 71% 29.81 in 10.0 mi SSW 4.6 mph - N/A   Scattered Clouds